Location: Pasadena, ca
(34.1243°N, 118.1037°W)
Time: 18:56:48
(UTC-08:00)

Tiangong 1 - Pass Details

Date: 13 November 2017
Orbit: 285 x 309 km, 42.8° (Epoch: 18 November)

Event Time Altitude Azimuth Distance (km) Brightness Sun altitude
Exits shadow 04:58:13 64° 62° (ENE) 323 0.8 -17.8°
Drops below altitude 10° 05:00:34 10° 112° (ESE) 1,139 4.7 -17.3°
Sets 05:02:32 0° 115° (ESE) 1,961 6.2 -16.9°
